sat.trackr.live / text

‹ back to catalog

STARLINK-36243

NORAD 67077 · 2025-298C

PAYLOAD ACTIVE UNKNOWN

§ Identity

Operator
Country
US
Launch date
2025-12-14
Launch site
AFWTR
Launch vehicle
Mass (kg)
RCS (m²)

Purposes: comms

External: N2YO · Heavens-Above · Gunter

§ Orbital elements

Epoch: 2026-05-25T03:13:29.077248Z

Period
96.11 min
Inclination
70.0011°
Eccentricity
0.0003697
Mean motion
14.98335196 rev/d
Perigee alt
569.5 km
Apogee alt
574.6 km
Semi-major
6,950.2 km
B*
1.8336e-4
RAAN
181.8893°
Arg perigee
267.7339°
Mean anomaly
92.3397°
Rev number
2,466

§ Raw data

STARLINK-362431 67077U 25298C   26145.13436432  .00002096  00000+0  18336-3 0  99972 67077  70.0011 181.8893 0003697 267.7339  92.3397 14.98335196 24668

JSON: /api/v1/satellites/67077 · /tle

For live sub-satellite position, see the globe view (requires WebGL).

§ Visibility from observer

Set your observer location to see the next 7 days of passes ≥ 10°. The values pass through the URL so the page stays shareable.

No JS? Fill the form by hand. The geolocation button needs JavaScript.